Theta_e
288 288 287 287 286 286 286 285 285 284 284 284 283 283 283 283 283 283 282 282 281 281 281 281 281 281 281 281 281 281 280 280 280 280 280 280 279 279 279 279 279 279
287 287 286 286 286 285 285 285 284 284 283 283 283 282 282 282 282 281 281 281 281 280 281 280 280 280 280 280 280 280 279 279 279 280 279 279 279 279 278 279 278 279
286 286 285 285 284 284 284 284 284 283 282 282 282 282 281 281 281 280 280 280 280 280 280 280 280 280 279 279 279 279 279 278 278 279 279 278 278 278 278 278 278 278
286 285 284 284 284 283 283 283 282 282 281 281 280 281 280 281 280 279 279 280 279 279 279 279 279 279 279 279 279 278 278 278 278 278 278 278 278 278 277 278 278 278
285 284 284 283 283 283 283 281 281 281 280 280 280 280 280 279 279 279 279 279 279 279 279 278 279 278 278 278 278 277 278 277 278 278 277 277 277 277 277 277 277 276
284 284 283 282 282 281 281 280 280 280 280 280 279 279 279 279 279 278 278 278 278 278 278 278 278 278 277 277 277 277 276 276 276 276 276 275 276 276 276 276 276 275
283 282 282 282 281 281 280 280 280 280 279 279 279 278 279 278 278 278 278 278 277 277 277 277 277 276 277 276 276 275 275 275 275 275 274 274 275 275 275 275 275 274
282 282 281 281 280 279 279 279 279 279 278 278 278 278 278 277 277 277 277 277 277 276 276 276 276 276 275 275 275 274 274 275 274 274 274 273 274 273 274 274 274 274
281 280 280 279 279 278 278 278 278 278 278 277 277 277 277 277 277 277 277 276 276 275 275 275 275 275 275 274 274 274 273 273 274 273 273 273 272 273 273 273 273 273
280 279 279 278 278 278 277 277 277 277 277 276 276 277 276 276 276 276 276 275 274 274 274 274 274 274 274 274 273 273 273 273 273 273 273 272 272 272 273 273 273 273
279 278 278 277 277 277 276 277 276 276 276 276 276 275 276 275 275 275 274 274 273 273 274 273 273 273 273 273 273 273 273 273 272 273 273 273 273 273 274 273 273 272
278 277 277 276 276 276 276 276 276 276 275 275 275 275 275 275 274 274 274 273 273 273 273 273 273 273 273 272 272 273 273 273 273 273 272 272 272 272 272 272 272 273
277 276 276 276 276 276 276 275 275 275 275 274 275 274 274 273 273 273 273 273 273 273 272 272 272 272 272 272 272 272 272 272 272 272 272 272 272 272 272 272 272 272
276 276 276 276 276 275 275 275 274 274 274 274 274 273 272 272 272 272 272 272 272 272 272 272 272 272 272 273 273 272 272 272 272 272 272 272 272 272 272 272 273 272
276 276 276 275 275 275 274 274 274 273 273 273 272 272 272 271 271 271 271 271 271 272 272 272 272 272 272 272 272 272 272 272 273 273 273 273 273 273 273 273 273 273
275 275 274 274 274 273 273 273 273 272 272 271 271 271 270 270 270 270 270 270 270 271 272 272 272 272 273 274 275 273 273 274 274 273 273 273 273 273 273 274 274 275
274 274 274 273 273 273 273 272 271 271 270 270 269 269 269 269 269 269 270 270 271 271 271 271 271 272 274 275 276 277 275 274 274 274 274 274 274 274 274 274 275 275
274 273 273 273 272 272 271 270 270 269 268 268 268 268 268 269 269 269 270 270 271 271 270 271 271 273 274 275 276 277 277 275 274 274 274 275 275 274 274 274 274 274
273 273 272 271 271 270 269 268 267 267 266 266 266 267 268 268 268 269 269 270 270 269 269 270 270 272 274 275 276 276 277 277 275 275 275 274 274 274 274 274 274 273
272 272 271 270 269 268 267 266 266 266 266 267 267 267 267 267 268 268 269 269 269 269 269 269 269 271 273 275 276 277 277 277 275 275 274 274 274 274 274 274 273 273
271 270 269 268 267 267 266 266 265 265 266 266 266 267 267 267 267 267 268 268 268 268 268 268 268 272 274 275 276 277 278 277 275 274 274 274 274 274 274 274 274 274
269 268 268 267 266 265 265 265 265 265 265 266 266 267 267 268 267 268 267 267 267 267 267 267 268 272 274 275 276 277 278 275 274 273 273 273 273 274 274 274 274 274
269 267 267 266 265 265 265 265 265 265 265 266 266 266 266 267 266 267 267 267 266 266 266 266 267 270 273 275 276 277 276 273 273 273 273 273 273 274 274 275 275 275
268 267 266 265 265 265 265 265 265 265 265 266 265 265 265 266 266 266 266 266 266 266 266 266 267 270 273 274 275 276 276 273 273 273 272 273 273 274 274 274 275 277
266 266 266 265 264 265 264 264 264 265 265 265 265 265 265 265 265 265 265 266 266 266 268 268 268 270 273 274 275 276 275 273 273 272 271 272 272 273 274 274 274 275
266 265 265 264 264 264 264 264 264 264 264 264 264 265 264 265 265 265 264 265 266 267 267 268 268 269 271 274 275 275 276 274 273 272 271 271 272 272 272 273 273 273
Wind_Speed
10 9 9 8 7 7 7 7 6 6 6 5 5 5 4 4 4 4 5 6 7 8 8 8 9 9 8 8 8 7 7 8 8 8 9 10 10 11 12 13 14 13
12 11 9 8 7 7 7 7 7 6 6 6 5 4 4 4 4 4 5 7 8 8 8 9 9 9 9 8 8 8 8 8 9 7 9 11 11 12 13 15 15 14
12 11 11 10 9 9 9 7 7 6 5 5 5 4 4 4 5 5 6 7 8 8 8 8 9 9 9 9 8 8 8 9 9 9 10 11 11 12 12 13 13 15
13 12 10 10 9 9 8 7 7 6 5 5 6 5 5 5 5 6 7 8 8 8 8 8 9 9 9 9 8 8 9 9 9 9 10 10 11 11 13 12 13 13
13 12 10 10 9 9 8 8 8 7 7 6 6 6 6 6 6 7 7 8 8 8 8 9 9 9 9 8 8 8 8 9 9 9 10 11 11 11 11 12 13 15
12 11 11 10 10 9 8 8 8 8 8 7 7 6 6 7 7 7 7 8 7 7 8 9 9 9 8 8 8 8 8 9 9 10 11 12 12 11 10 12 14 15
13 12 12 10 10 10 9 9 8 8 8 7 6 7 7 7 7 8 8 8 8 8 9 9 9 9 8 7 8 9 9 10 10 11 12 12 12 13 13 14 15 16
13 12 11 10 11 10 10 9 9 8 8 7 7 7 7 7 8 7 7 8 8 8 9 10 10 9 9 8 8 9 10 8 9 11 12 13 12 14 13 12 13 15
13 12 12 12 12 10 10 9 9 8 8 8 7 6 6 7 7 7 7 7 8 9 9 9 9 9 8 8 9 10 10 10 10 11 12 13 14 14 14 14 15 15
13 12 13 12 12 10 11 10 9 8 7 8 7 6 6 6 7 7 7 8 8 9 9 9 9 8 8 8 9 10 11 12 12 12 12 13 14 15 14 14 15 15
14 13 13 13 12 10 11 10 9 8 7 8 7 7 6 6 6 6 7 8 8 8 8 9 8 8 9 9 9 10 11 11 12 12 13 14 14 14 15 15 16 17
14 13 13 13 12 10 11 10 9 8 7 7 7 7 6 6 6 6 6 7 7 8 8 8 8 8 9 10 10 11 11 11 11 12 13 13 14 14 14 15 15 18
13 13 12 11 11 10 9 9 8 8 7 7 6 6 6 6 6 7 7 7 7 7 8 8 8 8 9 10 10 11 11 11 12 12 13 12 13 15 17 18 18 19
12 12 11 11 10 9 9 8 8 7 7 6 6 6 6 7 7 6 6 6 7 7 8 8 8 8 9 10 10 10 10 10 10 12 14 15 16 16 17 17 19 19
12 11 10 10 10 10 9 9 8 7 7 6 6 6 5 5 5 6 6 7 7 8 8 8 8 8 7 7 8 9 9 11 13 14 15 15 16 18 17 19 20 21
12 11 11 11 10 10 9 9 9 8 7 6 6 5 5 5 5 6 6 7 7 7 7 6 7 7 9 14 14 11 12 12 13 14 14 15 16 16 17 17 19 16
12 11 11 11 10 10 8 9 8 6 5 5 5 5 5 5 5 6 6 6 7 6 6 6 7 7 13 14 16 19 15 14 14 14 15 15 15 16 18 17 17 20
12 12 11 11 9 8 8 7 6 5 5 5 4 5 5 5 5 6 6 6 6 6 6 7 8 11 15 16 18 19 18 14 13 14 13 13 15 16 15 17 19 17
10 10 9 8 8 8 7 6 5 5 5 5 5 5 4 5 6 6 6 6 5 6 6 8 9 12 15 17 18 19 21 19 13 13 13 15 16 16 18 19 17 19
8 8 8 8 8 7 7 6 6 6 5 5 4 4 5 5 5 6 6 6 5 5 6 8 10 12 16 17 18 20 21 19 14 14 15 15 16 18 18 18 20 17
9 8 8 8 8 7 7 6 6 5 6 5 4 5 5 5 5 5 5 5 5 5 6 8 9 15 16 18 18 20 21 20 13 14 14 16 17 16 17 20 17 18
8 9 9 8 8 7 7 7 6 6 6 5 4 4 4 4 4 5 5 5 5 6 6 9 9 15 17 17 19 19 23 14 12 14 15 15 16 15 19 16 17 19
9 10 9 9 9 8 8 7 7 6 5 4 4 4 4 5 4 4 4 4 5 6 7 8 8 12 16 17 19 21 17 12 13 13 13 14 15 18 15 17 17 15
9 9 10 9 9 9 8 7 6 5 5 4 5 4 4 5 4 4 4 5 5 6 7 8 9 12 17 17 18 20 18 13 12 12 14 14 16 15 15 16 17 27
8 9 9 9 9 8 7 8 7 6 5 5 4 4 4 4 4 4 4 4 5 6 10 10 9 10 14 16 18 19 17 12 12 12 14 16 16 17 18 15 16 21
8 8 8 8 8 8 7 6 5 5 5 5 4 4 3 3 3 3 4 5 5 6 6 7 7 8 10 16 18 19 20 14 11 12 15 17 17 16 16 18 19 17
Wind_Direction
176 178 178 178 184 180 182 186 189 192 200 204 212 216 220 224 225 225 235 246 249 255 256 258 262 263 262 262 263 266 263 263 265 263 264 263 262 262 263 263 261 261
177 175 174 176 178 179 181 185 190 191 199 205 209 219 228 227 232 234 242 248 252 253 257 258 259 262 263 263 264 265 264 265 266 262 263 262 263 265 264 264 265 263
173 173 172 175 177 176 178 178 183 192 196 203 209 218 226 226 232 237 241 245 252 255 257 258 259 260 260 261 263 265 266 267 266 266 265 266 265 265 265 268 268 264
174 172 172 175 174 171 174 173 182 187 193 201 208 211 215 221 225 236 244 246 249 253 255 256 258 260 259 262 264 265 265 266 265 268 269 267 265 265 267 266 267 267
170 169 169 172 169 169 169 177 184 189 195 201 202 206 212 218 226 236 239 244 245 252 255 257 259 261 264 264 262 265 267 269 268 267 267 269 267 266 268 267 267 268
168 168 168 169 170 168 176 181 187 190 196 201 204 206 215 217 227 233 242 246 248 251 255 260 261 260 261 263 266 264 267 270 270 269 267 268 269 265 267 266 267 267
166 166 167 166 166 172 176 182 185 191 198 200 200 209 208 218 222 231 237 240 245 249 254 258 261 262 259 263 263 265 265 266 270 268 267 266 266 267 264 264 264 266
163 164 165 165 168 173 180 181 186 191 193 195 206 209 211 220 224 230 236 238 241 246 249 252 255 257 260 260 261 264 265 264 265 268 267 267 268 266 265 263 265 265
160 163 164 167 170 175 182 182 186 188 187 196 202 206 211 217 225 230 235 238 244 247 248 250 251 255 256 258 261 263 267 267 265 266 267 268 267 268 268 268 267 268
164 163 164 169 173 178 181 183 182 183 186 194 200 206 212 218 222 230 235 240 243 246 247 250 252 256 256 258 261 262 265 266 266 265 265 267 268 268 267 268 269 272
164 164 167 172 175 178 180 179 180 179 184 192 196 206 212 218 227 226 233 238 242 245 251 254 256 259 263 263 264 262 263 266 267 267 267 268 269 271 274 275 273 274
165 165 170 172 174 175 176 176 175 181 184 188 196 207 213 221 227 234 233 238 245 252 256 261 263 263 264 264 265 267 266 268 271 273 274 275 275 274 273 273 276 278
165 165 165 168 170 170 167 170 176 180 184 188 192 202 214 222 228 232 238 242 250 256 259 262 265 266 265 264 266 267 271 274 277 277 274 274 277 279 281 278 274 275
162 160 159 162 162 162 164 169 171 175 180 184 192 204 214 223 227 233 241 245 252 256 261 263 265 265 265 267 270 271 275 276 277 281 281 279 275 271 270 266 266 262
152 154 156 154 156 161 164 169 170 175 177 181 190 203 215 224 234 240 246 252 254 256 260 263 265 266 264 266 274 280 279 282 283 281 278 275 276 272 268 267 264 264
150 151 153 155 159 164 167 168 174 174 175 180 192 206 216 228 235 245 248 251 256 258 262 267 269 267 263 266 272 280 286 287 287 284 280 278 275 273 272 271 270 268
151 153 154 158 162 163 166 167 167 166 169 179 190 204 218 230 238 242 245 247 252 261 270 271 270 268 271 277 283 289 291 291 288 284 282 280 279 282 285 283 286 283
154 153 156 158 157 162 157 156 154 157 165 176 189 205 218 225 237 244 249 254 255 264 270 271 272 273 279 284 290 293 294 293 289 288 286 286 290 289 289 291 290 290
151 150 149 148 148 145 144 142 150 161 170 181 196 203 212 223 236 243 248 254 260 266 270 275 276 279 285 290 296 296 297 298 293 292 291 292 291 289 290 289 293 293
141 137 137 138 136 138 145 150 161 174 177 184 185 197 213 228 235 245 250 252 258 269 275 275 277 282 290 297 300 301 301 301 297 296 294 290 290 289 288 291 289 286
134 134 132 136 139 145 148 158 167 174 178 185 189 200 209 221 233 237 247 253 262 267 271 278 279 285 296 302 304 304 304 306 301 298 294 292 288 284 285 287 282 288
132 135 136 140 144 148 154 163 170 176 178 183 188 204 215 228 242 243 254 256 259 263 266 275 280 290 300 305 306 307 309 308 302 299 296 292 286 285 288 284 288 286
142 141 143 146 150 153 159 166 168 174 177 178 188 203 213 224 230 245 250 257 262 261 268 274 281 292 301 306 308 309 311 306 303 299 294 291 290 291 288 293 291 287
144 142 144 148 153 159 161 163 162 164 170 181 186 198 216 218 231 248 251 249 253 259 263 273 280 288 299 306 308 308 311 309 306 301 297 297 298 294 295 292 291 296
134 138 141 147 153 157 157 155 159 164 165 174 195 206 220 223 231 245 247 258 255 259 270 279 282 289 300 306 307 309 312 310 308 305 302 302 305 304 303 298 298 301
133 133 141 148 147 144 143 147 148 157 168 180 193 203 214 223 226 237 255 265 266 261 265 275 285 290 296 303 308 311 313 312 307 307 307 307 308 307 307 307 306 304